VOZ677 YMML-YPPH

Flight info

Callsign VOZ677
Flight time N/A
Altitude 34000
Route CRENA3/27 CRENA Q158 KABLI
Aircraft B738/M-SDE2E3FGHIRWXY/LB1

Departure

Time N/A
Airport Melbourne Airport (YMML)

Arrival

Time 2026-05-08 06:58
Airport Perth International Airport (YPPH)
Time Latitude Longitude Altitude Speed Heading
2026-05-08 06:24 -32.81094 119.00829 36426 ft 462 kts 290°
2026-05-08 06:24 -32.79944 118.97296 36446 ft 456 kts 290°
2026-05-08 06:25 -32.77673 118.90301 36441 ft 452 kts 289°
2026-05-08 06:25 -32.75433 118.83401 36444 ft 449 kts 289°
2026-05-08 06:26 -32.73185 118.76496 36437 ft 447 kts 289°
2026-05-08 06:26 -32.70950 118.69650 36424 ft 440 kts 289°
2026-05-08 06:27 -32.68750 118.62924 36426 ft 435 kts 289°
2026-05-08 06:27 -32.66565 118.56256 36434 ft 432 kts 289°
2026-05-08 06:28 -32.64427 118.49751 36420 ft 420 kts 289°
2026-05-08 06:28 -32.62306 118.43305 36438 ft 419 kts 289°
2026-05-08 06:29 -32.60178 118.36849 35890 ft 421 kts 289°
2026-05-08 06:29 -32.59107 118.33607 35272 ft 424 kts 290°
2026-05-08 06:29 -32.58028 118.30345 34741 ft 425 kts 290°
2026-05-08 06:30 -32.56969 118.27147 34258 ft 419 kts 290°
2026-05-08 06:30 -32.55909 118.23949 33623 ft 415 kts 290°
2026-05-08 06:30 -32.54854 118.20768 32912 ft 414 kts 290°
2026-05-08 06:30 -32.53800 118.17589 32347 ft 415 kts 291°
2026-05-08 06:31 -32.52745 118.14413 31924 ft 413 kts 291°
2026-05-08 06:31 -32.51695 118.11256 31542 ft 411 kts 291°
2026-05-08 06:31 -32.50649 118.08114 31165 ft 409 kts 291°
2026-05-08 06:31 -32.49608 118.04989 30783 ft 407 kts 291°
2026-05-08 06:32 -32.48571 118.01880 30416 ft 405 kts 292°
2026-05-08 06:32 -32.47554 117.98833 29990 ft 402 kts 292°
2026-05-08 06:32 -32.46529 117.95765 29585 ft 399 kts 292°
2026-05-08 06:32 -32.45510 117.92718 29192 ft 396 kts 292°
2026-05-08 06:33 -32.44499 117.89698 28807 ft 393 kts 292°
2026-05-08 06:33 -32.43494 117.86700 28431 ft 390 kts 292°
2026-05-08 06:33 -32.42497 117.83725 28064 ft 387 kts 292°
2026-05-08 06:33 -32.41506 117.80774 27687 ft 384 kts 292°
2026-05-08 06:34 -32.40522 117.77845 27333 ft 382 kts 292°
2026-05-08 06:34 -32.39544 117.74936 26972 ft 379 kts 292°
2026-05-08 06:34 -32.38571 117.72042 26600 ft 377 kts 292°
2026-05-08 06:34 -32.37616 117.69209 26253 ft 375 kts 293°
2026-05-08 06:35 -32.36653 117.66351 25897 ft 373 kts 292°
2026-05-08 06:35 -32.35788 117.63442 25261 ft 381 kts 288°
2026-05-08 06:35 -32.35040 117.60420 24790 ft 383 kts 287°
2026-05-08 06:35 -32.34337 117.57379 24347 ft 383 kts 286°
2026-05-08 06:36 -32.33643 117.54344 23970 ft 382 kts 286°
2026-05-08 06:36 -32.32945 117.51318 23552 ft 380 kts 287°
2026-05-08 06:36 -32.32245 117.48328 23179 ft 377 kts 287°
2026-05-08 06:36 -32.31549 117.45392 22812 ft 374 kts 287°
2026-05-08 06:37 -32.30845 117.42443 22456 ft 371 kts 287°
2026-05-08 06:37 -32.30143 117.39521 22097 ft 368 kts 287°
2026-05-08 06:37 -32.29445 117.36621 21750 ft 365 kts 287°
2026-05-08 06:37 -32.28751 117.33744 21403 ft 362 kts 288°
2026-05-08 06:38 -32.28062 117.30893 21064 ft 360 kts 288°
2026-05-08 06:38 -32.27376 117.28060 20723 ft 357 kts 288°
2026-05-08 06:38 -32.26695 117.25246 20385 ft 355 kts 288°
2026-05-08 06:38 -32.26017 117.22451 20042 ft 353 kts 288°
2026-05-08 06:39 -32.25352 117.19711 19716 ft 351 kts 288°
2026-05-08 06:39 -32.24680 117.16944 19382 ft 349 kts 288°
2026-05-08 06:39 -32.24013 117.14200 19045 ft 347 kts 288°
2026-05-08 06:39 -32.23346 117.11463 18716 ft 346 kts 288°
2026-05-08 06:40 -32.22684 117.08744 18343 ft 344 kts 288°
2026-05-08 06:40 -32.22024 117.06037 17981 ft 342 kts 288°
2026-05-08 06:40 -32.21367 117.03346 17635 ft 340 kts 288°
2026-05-08 06:40 -32.20715 117.00679 17311 ft 337 kts 288°
2026-05-08 06:41 -32.20077 116.98067 16982 ft 335 kts 288°
2026-05-08 06:41 -32.19433 116.95436 16655 ft 332 kts 288°
2026-05-08 06:41 -32.18792 116.92823 16337 ft 330 kts 289°
2026-05-08 06:41 -32.18156 116.90224 16012 ft 329 kts 288°
2026-05-08 06:42 -32.17674 116.87592 15705 ft 328 kts 282°
2026-05-08 06:42 -32.17336 116.84941 15405 ft 326 kts 280°
2026-05-08 06:42 -32.17028 116.82297 15086 ft 324 kts 280°
2026-05-08 06:42 -32.16716 116.79666 14779 ft 323 kts 280°
2026-05-08 06:43 -32.16393 116.77053 14473 ft 321 kts 281°
2026-05-08 06:43 -32.16065 116.74481 14136 ft 321 kts 281°
2026-05-08 06:43 -32.15728 116.71879 13783 ft 320 kts 281°
2026-05-08 06:43 -32.15388 116.69288 13451 ft 318 kts 281°
2026-05-08 06:44 -32.15049 116.66715 13128 ft 316 kts 281°
2026-05-08 06:44 -32.14711 116.64157 12811 ft 315 kts 281°
2026-05-08 06:44 -32.14521 116.61589 12482 ft 316 kts 268°
2026-05-08 06:44 -32.14765 116.59023 12196 ft 314 kts 264°
2026-05-08 06:45 -32.15067 116.56476 11887 ft 312 kts 263°
2026-05-08 06:45 -32.15371 116.53942 11575 ft 311 kts 263°
2026-05-08 06:45 -32.15666 116.51423 11271 ft 310 kts 264°
2026-05-08 06:45 -32.15950 116.48939 10966 ft 309 kts 264°
2026-05-08 06:46 -32.16230 116.46433 10662 ft 308 kts 264°
2026-05-08 06:46 -32.16508 116.43903 10196 ft 313 kts 264°
2026-05-08 06:46 -32.16785 116.41361 9799 ft 314 kts 264°
2026-05-08 06:46 -32.17061 116.38814 9487 ft 312 kts 264°
2026-05-08 06:47 -32.17334 116.36283 9171 ft 310 kts 264°
2026-05-08 06:47 -32.17604 116.33766 8856 ft 308 kts 264°
2026-05-08 06:47 -32.17872 116.31260 8550 ft 307 kts 264°
2026-05-08 06:47 -32.18139 116.28766 8239 ft 306 kts 264°
2026-05-08 06:48 -32.18404 116.26283 7937 ft 304 kts 264°
2026-05-08 06:48 -32.18663 116.23847 7642 ft 303 kts 264°
2026-05-08 06:48 -32.18925 116.21382 7337 ft 302 kts 264°
2026-05-08 06:48 -32.19101 116.19721 7131 ft 301 kts 264°
2026-05-08 06:49 -32.19360 116.17276 6830 ft 299 kts 264°
2026-05-08 06:49 -32.19617 116.14843 6520 ft 299 kts 264°
2026-05-08 06:49 -32.19755 116.12405 6216 ft 297 kts 270°
2026-05-08 06:49 -32.19774 116.09983 5913 ft 295 kts 271°
2026-05-08 06:50 -32.19786 116.07591 5632 ft 287 kts 271°
2026-05-08 06:50 -32.19809 116.05299 5491 ft 272 kts 271°
2026-05-08 06:50 -32.19830 116.03151 5375 ft 257 kts 273°
2026-05-08 06:50 -32.19565 116.01136 5149 ft 241 kts 287°
2026-05-08 06:51 -32.19134 115.99283 4865 ft 230 kts 289°
2026-05-08 06:51 -32.18702 115.97448 4405 ft 226 kts 288°
2026-05-08 06:51 -32.18312 115.95727 4262 ft 210 kts 288°
2026-05-08 06:51 -32.17944 115.94077 4219 ft 207 kts 287°
2026-05-08 06:52 -32.17571 115.92426 4138 ft 208 kts 291°
2026-05-08 06:52 -32.16808 115.91113 3976 ft 191 kts 333°
2026-05-08 06:52 -32.15593 115.90809 3780 ft 176 kts
2026-05-08 06:52 -32.14384 115.90927 3575 ft 176 kts 11°
2026-05-08 06:53 -32.13155 115.91114 3373 ft 181 kts 15°
2026-05-08 06:53 -32.11935 115.91411 3132 ft 176 kts 16°
2026-05-08 06:53 -32.10747 115.91701 2890 ft 173 kts 15°
2026-05-08 06:53 -32.09579 115.91992 2693 ft 171 kts 17°
2026-05-08 06:54 -32.08418 115.92316 2482 ft 171 kts 18°
2026-05-08 06:54 -32.07305 115.92636 2310 ft 155 kts 19°
2026-05-08 06:54 -32.06346 115.92913 2205 ft 136 kts 21°
2026-05-08 06:54 -32.05407 115.93192 2005 ft 137 kts 19°
2026-05-08 06:55 -32.04498 115.93456 1817 ft 133 kts 19°
2026-05-08 06:55 -32.03601 115.93717 1664 ft 134 kts 19°
2026-05-08 06:55 -32.02691 115.93983 1480 ft 136 kts 19°
2026-05-08 06:55 -32.01785 115.94246 1270 ft 131 kts 20°
2026-05-08 06:56 -32.00898 115.94505 1095 ft 135 kts 19°
2026-05-08 06:56 -31.99986 115.94771 921 ft 135 kts 21°
2026-05-08 06:56 -31.99079 115.95036 750 ft 135 kts 19°
2026-05-08 06:56 -31.98178 115.95295 580 ft 134 kts 18°
2026-05-08 06:57 -31.97283 115.95550 418 ft 132 kts 16°
2026-05-08 06:57 -31.96407 115.95809 224 ft 127 kts 15°
2026-05-08 06:57 -31.95571 115.96055 70 ft 114 kts 13°
2026-05-08 06:57 -31.94937 115.96242 63 ft 65 kts 17°
2026-05-08 06:58 -31.94606 115.96338 63 ft 45 kts 14°
2026-05-08 06:58 -31.94327 115.96418 64 ft 38 kts 15°
2026-05-08 06:58 -31.94168 115.96473 62 ft 17 kts 27°
2026-05-08 06:58 -31.94098 115.96582 66 ft 16 kts 58°
2026-05-08 06:59 -31.94039 115.96692 63 ft 15 kts 57°
2026-05-08 06:59 -31.93991 115.96786 64 ft 10 kts 59°
2026-05-08 06:59 -31.94005 115.96858 67 ft 10 kts 149°
2026-05-08 06:59 -31.94073 115.96843 64 ft 10 kts 194°
2026-05-08 07:00 -31.94140 115.96825 63 ft 10 kts 192°
2026-05-08 07:00 -31.94199 115.96878 59 ft 13 kts 103°
2026-05-08 07:00 -31.94214 115.96982 63 ft 13 kts 103°
2026-05-08 07:00 -31.94221 115.97067 67 ft 7 kts 74°
2026-05-08 07:01 -31.94212 115.97125 61 ft 6 kts 59°
2026-05-08 07:01 -31.94201 115.97143 62 ft 3 kts 50°
2026-05-08 07:01 -31.94195 115.97150 65 ft 1 kts 49°
2026-05-08 07:01 -31.94192 115.97156 62 ft 0 kts 49°